Tracking 29892 objects as of 21-Nov-2024
HD Live streaming from Space Station
objects crossing your sky now

SL-12 R/B(2)

Track SL-12 R/B(2) now!


NORAD ID: 38104
Int'l Code: 2012-012D
Perigee: 35,780.3 km
Apogee: 35,870.4 km
Inclination: 7.5 °
Period: 1,437.7 minutes
Semi major axis: 42196 km
RCS: 0.003 m2 (small)
Launch date: March 30, 2012
Source: Commonwealth of Independent States (former USSR) (CIS)
Launch site: TYURATAM MISSILE AND SPACE COMPLEX (TTMTR)

Note: This is a ROCKET BODY
Your satellite tracking list
Your tracking list is empty




NASA's NSSDC Master Catalog

Two Line Element Set (TLE):
1 38104U 12012D   24325.31541743  .00000007  00000-0  00000-0 0  9993
2 38104   7.5021  62.0081 0010676 281.4039  71.5809  1.00159177 46301
Source of the keplerian elements: AFSPC